TimeCDT,TemperatureF,Dew PointF,Humidity,Sea Level PressureIn,VisibilityMPH,Wind Direction,Wind SpeedMPH,Gust SpeedMPH,PrecipitationIn,Events,Conditions,WindDirDegrees,DateUTC
12:54 AM,59.0,54.0,83,30.07,10.0,Calm,Calm,-,N/A,,Clear,0,2013-07-01 05:54:00
1:54 AM,59.0,54.0,83,30.08,10.0,WNW,3.5,-,N/A,,Clear,300,2013-07-01 06:54:00
2:54 AM,57.0,54.0,89,30.08,10.0,NW,4.6,-,N/A,,Clear,310,2013-07-01 07:54:00
3:54 AM,55.9,53.1,90,30.09,10.0,Calm,Calm,-,N/A,,Clear,0,2013-07-01 08:54:00
4:54 AM,55.9,53.1,90,30.09,10.0,Calm,Calm,-,N/A,,Clear,0,2013-07-01 09:54:00
5:54 AM,55.9,53.1,90,30.10,10.0,WNW,3.5,-,N/A,,Clear,300,2013-07-01 10:54:00
6:54 AM,57.9,55.0,90,30.11,10.0,NW,3.5,-,N/A,,Clear,320,2013-07-01 11:54:00
7:54 AM,64.0,57.0,78,30.12,10.0,North,3.5,-,N/A,,Clear,360,2013-07-01 12:54:00
8:54 AM,68.0,57.9,70,30.14,10.0,North,4.6,-,N/A,,Clear,10,2013-07-01 13:54:00
9:54 AM,72.0,55.9,57,30.14,10.0,NE,5.8,-,N/A,,Clear,40,2013-07-01 14:54:00
10:54 AM,75.9,52.0,43,30.14,10.0,ENE,10.4,-,N/A,,Clear,70,2013-07-01 15:54:00
11:54 AM,78.1,52.0,40,30.14,10.0,NE,10.4,-,N/A,,Clear,40,2013-07-01 16:54:00
12:54 PM,79.0,51.1,38,30.12,10.0,NE,11.5,20.7,N/A,,Clear,50,2013-07-01 17:54:00
1:54 PM,79.0,51.1,38,30.12,10.0,NE,13.8,20.7,N/A,,Clear,50,2013-07-01 18:54:00
2:54 PM,80.1,48.9,34,30.11,10.0,NE,15.0,19.6,N/A,,Clear,50,2013-07-01 19:54:00
3:54 PM,80.1,51.1,36,30.11,10.0,ENE,13.8,18.4,N/A,,Clear,60,2013-07-01 20:54:00
4:54 PM,80.1,51.1,36,30.11,10.0,NE,13.8,19.6,N/A,,Clear,50,2013-07-01 21:54:00
5:54 PM,78.1,51.1,39,30.11,10.0,ENE,11.5,-,N/A,,Partly Cloudy,60,2013-07-01 22:54:00
6:54 PM,77.0,51.1,40,30.10,10.0,NE,10.4,-,N/A,,Partly Cloudy,50,2013-07-01 23:54:00
7:54 PM,73.9,54.0,50,30.10,10.0,NE,5.8,-,N/A,,Clear,50,2013-07-02 00:54:00
8:54 PM,70.0,55.9,61,30.10,10.0,Calm,Calm,-,N/A,,Clear,0,2013-07-02 01:54:00
9:54 PM,66.0,55.9,70,30.11,10.0,NW,3.5,-,N/A,,Clear,320,2013-07-02 02:54:00
10:54 PM,64.0,55.9,75,30.12,10.0,Calm,Calm,-,N/A,,Clear,0,2013-07-02 03:54:00
11:54 PM,62.1,57.0,84,30.11,10.0,Calm,Calm,-,N/A,,Clear,0,2013-07-02 04:54:00